This is the latest recevied weather packets stored in our database for station/object IT9CNT. If no packets are shown the sender has not sent any weather packets the latest 1 day(s).
| Time | Temp. | Humidity | Pressure | Rain* | Wind** | Luminosity | Snow |
|---|---|---|---|---|---|---|---|
| 1778051223 | 18.33° C | 78% | 1011.9 hPa | 0 mm | 2.68 m/s, 103° | - | - |
| 1778051163 | 18.33° C | 78% | 1011.8 hPa | 0 mm | 3.13 m/s, 98° | - | - |
| 1778051103 | 18.33° C | 78% | 1011.9 hPa | 0 mm | 2.68 m/s, 96° | - | - |
| 1778051043 | 18.33° C | 78% | 1011.7 hPa | 0 mm | 2.68 m/s, 99° | - | - |
| 1778050983 | 18.33° C | 78% | 1011.8 hPa | 0 mm | 2.68 m/s, 101° | - | - |
| 1778050923 | 18.33° C | 78% | 1011.8 hPa | 0 mm | 2.68 m/s, 102° | - | - |
| 1778050863 | 18.33° C | 78% | 1011.7 hPa | 0 mm | 2.68 m/s, 97° | - | - |
| 1778050803 | 17.78° C | 78% | 1011.8 hPa | 0 mm | 2.68 m/s, 93° | - | - |
| 1778050743 | 17.78° C | 78% | 1012 hPa | 0 mm | 2.68 m/s, 86° | - | - |
| 1778050683 | 17.78° C | 78% | 1011.9 hPa | 0 mm | 2.68 m/s, 82° | - | - |
| 1778050623 | 18.33° C | 77% | 1012 hPa | 0 mm | 2.24 m/s, 74° | - | - |
| 1778050563 | 18.33° C | 78% | 1011.9 hPa | 0 mm | 2.24 m/s, 79° | - | - |
| 1778050503 | 18.33° C | 78% | 1011.7 hPa | 0 mm | 2.24 m/s, 79° | - | - |
| 1778050443 | 18.33° C | 78% | 1011.9 hPa | 0 mm | 2.24 m/s, 80° | - | - |
| 1778050383 | 18.33° C | 77% | 1011.6 hPa | 0 mm | 2.24 m/s, 80° | - | - |
| 1778050323 | 18.33° C | 78% | 1012 hPa | 0 mm | 2.24 m/s, 72° | - | - |
| 1778050263 | 18.33° C | 78% | 1011.9 hPa | 0 mm | 2.24 m/s, 82° | - | - |
| 1778050203 | 18.33° C | 77% | 1011.7 hPa | 0 mm | 2.24 m/s, 89° | - | - |
| 1778050143 | 18.33° C | 77% | 1011.9 hPa | 0 mm | 2.24 m/s, 91° | - | - |
| 1778050083 | 18.33° C | 78% | 1011.8 hPa | 0 mm | 2.68 m/s, 97° | - | - |
| 1778050023 | 18.33° C | 77% | 1012 hPa | 0 mm | 2.68 m/s, 104° | - | - |
| 1778049963 | 18.33° C | 77% | 1012 hPa | 0 mm | 2.68 m/s, 102° | - | - |
| 1778049903 | 18.33° C | 77% | 1012.1 hPa | 0 mm | 2.68 m/s, 100° | - | - |
| 1778049843 | 18.33° C | 77% | 1012 hPa | 0 mm | 3.13 m/s, 98° | - | - |
| 1778049783 | 17.78° C | 77% | 1012.1 hPa | 0 mm | 3.13 m/s, 96° | - | - |
* Rain latest hour (hover to see other rain measurements)
** Current wind speed in m/s (hover to see current wind gust speed)